This demonstration page uses our WeatherBlox Daily Observations layout. Learn more.

Left ArrowRight Arrow

39.51506, -84.39828

Hourly Observations for December 12, 2015

Temp ( °F °C ) Dew Point ( °F °C ) Humidity (%) Winds ( mph kmh ) Pressure ( in mb ) Visibility ( mi km ) Precip ( " mm )
12:15 am 00:15 Cloudy 59 14.9 55 13 89 89 N N/A 29.94 1014 7 11 N/A
12:35 am 00:35 Cloudy 59 15.1 55 13 87 87 N N/A 29.94 1014 7 11 N/A
12:55 am 00:55 Cloudy with Mist and Fog 57 13.8 54 12 89 89 N N/A 29.97 1015 5 8 N/A
1:15 am 01:15 Cloudy 59 15 56 13.2 89 89 SSW 3 6 29.94 1014 7 11 N/A
1:35 am 01:35 Cloudy 60 15.3 56 13.2 87 87 SSW 3 6 29.94 1014 10 16 N/A
1:55 am 01:55 Cloudy 61 16 56 13.6 86 86 SSW 6 9 29.94 1014 10 16 N/A
2:15 am 02:15 Cloudy 62 16.6 57 13.9 84 84 SSW 7 11 29.94 1014 10 16 N/A
2:35 am 02:35 Cloudy 63 17.1 57 14.1 83 83 SSW 8 13 29.94 1014 10 16 N/A
2:55 am 02:55 Mostly Cloudy 62 16.7 57 13.7 83 83 SSW 7 11 29.94 1014 10 16 N/A
3:15 am 03:15 Mostly Cloudy 63 17.3 58 14.2 82 82 SSW 7 11 29.94 1014 10 16 N/A
3:35 am 03:35 Cloudy 62 16.8 57 14.1 84 84 SSW 7 11 29.94 1014 10 16 N/A
3:55 am 03:55 Cloudy 62 16.7 57 14.1 85 85 SW 6 9 29.94 1014 10 16 N/A
4:15 am 04:15 Cloudy 63 17.2 58 14.2 83 83 SSW 8 13 29.94 1014 10 16 N/A
4:35 am 04:35 Mostly Cloudy 63 17 58 14.2 84 84 SSW 8 13 29.94 1014 10 16 N/A
4:55 am 04:55 Partly Cloudy 62 16.6 57 13.9 84 84 SSW 8 13 29.94 1014 10 16 N/A
5:15 am 05:15 Mostly Cloudy 63 17.2 58 14.4 84 84 SSW 8 13 29.94 1014 10 16 N/A
5:35 am 05:35 Mostly Cloudy 63 17.3 58 14.5 84 84 SSW 8 13 29.97 1015 10 16 N/A
5:55 am 05:55 Cloudy 64 18 59 15.2 84 84 SSW 8 13 29.97 1015 10 16 N/A
6:15 am 06:15 Cloudy 64 18 59 15.2 84 84 SSW 7 11 29.97 1015 10 16 N/A
6:35 am 06:35 Cloudy 64 18 59 15.2 84 84 SSW 9 15 29.97 1015 10 16 N/A
6:55 am 06:55 Cloudy 64 18 59 15 83 83 SSW 7 11 29.97 1015 10 16 N/A
7:15 am 07:15 Cloudy 64 18 59 15.1 83 83 SSW 7 11 30.00 1016 10 16 N/A
7:35 am 07:35 Cloudy 64 18 59 15.2 84 84 SSW 7 11 30.00 1016 10 16 N/A
7:55 am 07:55 Cloudy 64 18 59 15 83 83 SSW 6 9 30.00 1016 10 16 N/A
8:15 am 08:15 Cloudy 64 18 59 15.2 84 84 SSW 8 13 30.00 1016 10 16 N/A
8:35 am 08:35 Cloudy 64 18 59 15.1 83 83 SSW 6 9 30.00 1016 10 16 N/A
8:55 am 08:55 Cloudy 64 18 59 15.1 83 83 SSW 6 9 30.03 1017 10 16 N/A
9:15 am 09:15 Cloudy 67 19.5 62 16.5 83 83 SSW 8 13 30.03 1017 10 16 N/A
9:35 am 09:35 Cloudy 69 20.8 63 17.4 81 81 SW 8 13 30.03 1017 10 16 N/A
9:55 am 09:55 Mostly Cloudy 69 20.8 63 17 79 79 SW 13 20 30.03 1017 10 16 N/A
10:15 am 10:15 Mostly Cloudy 69 20.8 62 16.9 78 78 SSW 14 22 30.03 1017 10 16 N/A
10:35 am 10:35 Cloudy 69 20.8 62 16.8 78 78 SW 10 17 30.03 1017 10 16 N/A
10:55 am 10:55 Cloudy 69 20.8 61 16.3 76 76 SSW 13 20 30.03 1017 10 16 N/A
11:15 am 11:15 Mostly Cloudy 69 20.8 62 16.5 77 77 SW 13 20 30.03 1017 10 16 N/A
11:35 am 11:35 Mostly Cloudy 69 20.8 62 16.4 76 76 SW 13 20 30.03 1017 10 16 N/A
11:55 am 11:55 Mostly Cloudy 69 20.8 61 16.1 75 75 SW 12 19 30.03 1017 10 16 N/A
12:15 pm 12:15 Cloudy 70 20.9 61 16 74 74 SSW 12 19 30.03 1017 10 16 N/A
12:35 pm 12:35 Cloudy 69 20.8 62 16.4 76 76 SW 14 22 30.03 1017 10 16 N/A
12:55 pm 12:55 Cloudy 69 20.8 61 16.1 75 75 SSW 10 17 30.03 1017 10 16 N/A
1:15 pm 13:15 Cloudy 69 20.8 61 16.1 75 75 SW 10 17 30.03 1017 10 16 N/A
1:35 pm 13:35 Cloudy 69 20.8 61 16 74 74 SW 12 19 30.03 1017 10 16 N/A
1:55 pm 13:55 Cloudy 71 21.8 62 16.5 72 72 SW 17 28 30.03 1017 10 16 N/A
2:15 pm 14:15 Cloudy 71 21.6 61 16 71 71 SW 16 26 30.03 1017 10 16 N/A
2:35 pm 14:35 Cloudy 71 21.6 61 16.1 71 71 SW 12 19 30.03 1017 10 16 N/A
2:55 pm 14:55 Cloudy 71 21.6 61 16 71 71 SW 12 19 30.03 1017 10 16 N/A
3:15 pm 15:15 Cloudy 71 21.6 61 16 71 71 SW 14 22 30.03 1017 10 16 N/A
3:35 pm 15:35 Cloudy 72 22.1 61 16 68 68 SW 14 22 30.03 1017 10 16 N/A
3:55 pm 15:55 Cloudy 71 21.4 60 15.4 69 69 SW 13 20 30.06 1018 10 16 N/A
4:15 pm 16:15 Cloudy 70 20.9 58 14.5 67 67 SW 12 19 30.06 1018 10 16 N/A
4:35 pm 16:35 Cloudy 70 21.2 59 15 68 68 SW 8 13 30.06 1018 10 16 N/A
4:55 pm 16:55 Cloudy 69 20.8 59 14.8 69 69 SSW 6 9 30.06 1018 10 16 N/A
5:15 pm 17:15 Cloudy 69 20.8 59 15 70 70 SSW 8 13 30.06 1018 10 16 N/A
5:35 pm 17:35 Cloudy 69 20.8 59 15.2 70 70 SSW 8 13 30.06 1018 10 16 N/A
5:55 pm 17:55 Cloudy 69 20.8 59 15 70 70 SSW 9 15 30.09 1019 10 16 N/A
6:15 pm 18:15 Cloudy 69 20.8 60 15.3 71 71 SSW 9 15 30.09 1019 10 16 N/A
6:35 pm 18:35 Cloudy 69 20.8 60 15.6 72 72 SSW 9 15 30.09 1019 10 16 N/A
6:55 pm 18:55 Partly Cloudy 68 20 60 15.3 74 74 SSW 8 13 30.09 1019 10 16 N/A
7:15 pm 19:15 Mostly Cloudy 69 20.8 61 16.1 75 75 SSW 7 11 30.09 1019 10 16 N/A
7:35 pm 19:35 Cloudy 69 20.8 61 16 74 74 SSW 7 11 30.09 1019 10 16 N/A
7:55 pm 19:55 Cloudy 69 20.8 60 15.7 73 73 SSW 9 15 30.09 1019 10 16 N/A
8:15 pm 20:15 Partly Cloudy 69 20.8 60 15.8 73 73 SSW 8 13 30.09 1019 10 16 N/A
8:35 pm 20:35 Clear 66 18.8 58 14.4 76 76 SSW 6 9 30.09 1019 10 16 N/A
8:55 pm 20:55 Clear 64 17.5 56 13.6 78 78 SSW 6 9 30.09 1019 10 16 N/A
9:15 pm 21:15 Clear 64 17.8 58 14.2 80 80 SSW 6 9 30.09 1019 10 16 N/A
9:35 pm 21:35 Clear 62 16.6 56 13.2 80 80 SW 5 7 30.09 1019 10 16 N/A
9:55 pm 21:55 Clear 61 16 56 13.1 83 83 SSW 6 9 30.12 1020 10 16 N/A
10:15 pm 22:15 Clear 61 16 55 13 83 83 SSW 8 13 30.15 1021 10 16 N/A
10:35 pm 22:35 Clear 62 16.6 56 13.6 83 83 SSW 7 11 30.12 1020 10 16 N/A
10:55 pm 22:55 Partly Cloudy 62 16.6 57 13.7 83 83 N N/A 30.12 1020 10 16 N/A
11:15 pm 23:15 Partly Cloudy 60 15.5 55 12.9 85 85 N N/A 30.15 1021 10 16 N/A
11:55 pm 23:55 Clear 60 15.3 55 12.9 86 86 S 6 9 30.12 1020 10 16 N/A

Powered by AerisWeather